Location: Moscow
(55.7500°N, 37.5830°E)
Time: 08:19:14
(UTC+03:00)

N. Korean satellite - Pass Details

Date: 28 October 2021
Orbit: 446 x 495 km, 97.3° (Epoch: 04 December)

Event Time Altitude Azimuth Distance (km) Brightness Sun altitude
Rises 06:36:54 0° 9° (N) 2,602 10.2 -7.6°
Reaches altitude 10° 06:39:04 10° 3° (N) 1,711 9.2 -7.3°
Maximum altitude 06:42:33 42° 292° (WNW) 722 7.0 -6.8°
Drops below altitude 10° 06:45:59 10° 221° (SW) 1,682 9.0 -6.4°
Sets 06:48:06 0° 214° (SW) 2,551 10.0 -6.1°
